Weather Roundup
Issued by NWS Chicago, IL

Home | Current Version | Previous Version | Graphics & Text | Print | Product List | Glossary On
Versions: 1 2 3 4 5 6 7 8 9 10 11 12 13 14 15 16 17 18 19 20 21 22 23 24 25 26 27 28 29 30 31 32 33 34 35 36 37 38 39 40 41 42 43 44 45 46 47 48 49 50
000
NZUS59 KLOT 121800
HRRLOT

CHICAGO AREA WEATHER ROUNDUP
NATIONAL WEATHER SERVICE CHICAGO/ROMEOVILLE IL
100 PM CDT SAT JUL 12 2014

NOTE: "FAIR" INDICATES FEW OR NO CLOUDS BELOW 12,000 FEET WITH NO
SIGNIFICANT WEATHER AND/OR OBSTRUCTIONS TO VISIBILITY.

* THESE STATIONS ARE NOT UNDER NWS QUALITY CONTROL. THEY ALSO MAY NOT
  REPORT WEATHER SUCH AS PRECIPITATION OR FOG.

ILZ005-006-012>014-019>023-121900-
NORTHEAST ILLINOIS

CITY           SKY/WX    TMP DP  RH WIND       PRES   REMARKS
OHARE          CLOUDY    77  69  76 SW18G29   30.01S
6HR MIN TEMP:  70; 6HR MAX TEMP:  77; 6HR PCP:  0.08;

MIDWAY         CLOUDY    78  72  81 SW17G29   30.01F HX  80
6HR MIN TEMP:  70; 6HR MAX TEMP:  78;

AURORA         CLOUDY    77  70  79 S17G23    30.04F
6HR MIN TEMP:  70; 6HR MAX TEMP:  78; 6HR PCP:  0.33;

WAUKEGAN       CLOUDY    74  70  87 SW12      30.01R
6HR MIN TEMP:  71; 6HR MAX TEMP:  74; 6HR PCP:  0.01;

DUPAGE AIRPORT CLOUDY    78  71  79 S15       30.03S HX  80
6HR MIN TEMP:  69; 6HR MAX TEMP:  78;

WHEELING       CLOUDY    76  70  82 SW14      30.03R
6HR MIN TEMP:  72; 6HR MAX TEMP:  77; 6HR PCP:  0.03;

NORTHERLY IS     N/A     74  68  81 SW14        N/A
$$

WIZ051-052-058>065-066-070>072-121900-
SOUTHEAST WISCONSIN

CITY           SKY/WX    TMP DP  RH WIND       PRES   REMARKS
MILWAUKEE      CLOUDY    75  69  81 S10       29.98F
6HR MIN TEMP:  72; 6HR MAX TEMP:  76; 6HR PCP: TRACE;

KENOSHA*       CLOUDY    76  71  85 SW10      29.99F
RACINE*        CLOUDY    77  71  82 SW8       30.00F
WAUKESHA       PTSUNNY   73  66  78 S9        30.02S FOG
$$

INZ001>003-010>013-019-020-121900-
NORTHWEST INDIANA

CITY           SKY/WX    TMP DP  RH WIND       PRES   REMARKS
GARY*          CLOUDY    73  70  88 S9        30.04F
MICHIGAN CITY* NOT AVBL
RENSSELAER*    NOT AVBL
VALPARAISO     LGT RAIN  71  69  93 S7        30.06F
$$

LMZ740>746-121900-
SOUTHERN LAKE MICHIGAN

STATION/POSITION TIME  SKY/WX   TEMP WIND        PRES    VSBY
                                AIR  DIR/SP/G
                 (UTC)          (F)  (DEG/KT/KT) (MB)    (MI)
HARRISON CRIB    1700            70  190/ 23/ 26   N/A
BURNHAM HARBOR   1800            74  180/ 13/ 16   N/A
CALUMET HARBOR   1700            71  170/ 11/ 15 1017.3F
BURNS HARBOR     NOT AVBL
MICHIGAN CITY    1700            70  160/ 10/ 13   N/A
$$

ABBREVIATIONS USED IN REMARKS
   TC - TEMPERATURE IN CELSIUS
  WCI - WIND CHILL INDEX
   HX - HEAT INDEX
  VSB - VISIBILITY
$$


USA.gov is the U.S. government's official web portal to all federal, state and local government web resources and services.